GFSFLT2_prec_cthk_000.txt.gz
RH
19 18 18 21 27 30 34 41 46 48 47 43 46 45 44 47 50 50 49 50 56 56 56 56 64 66 63
19 20 23 30 30 34 37 43 47 45 47 50 49 49 49 49 49 51 52 51 54 61 69 72 69 68 64
28 27 33 39 42 43 44 41 44 46 51 50 53 55 57 57 56 56 57 64 69 71 76 77 76 72 72
39 43 48 47 50 47 48 51 54 62 65 69 72 73 73 74 74 74 74 75 78 78 79 78 74 70 68
51 49 50 47 53 59 67 74 83 87 82 86 88 88 87 84 81 79 73 71 72 73 76 76 70 64 61
47 46 51 57 67 76 80 83 79 91 89 85 90 88 88 86 84 82 71 66 68 68 65 72 77 76 73
46 55 66 75 79 81 85 87 88 89 91 84 86 84 87 88 87 79 69 65 67 71 77 78 78 81 82
69 73 77 81 85 86 86 87 87 88 90 85 88 85 85 85 84 77 65 66 71 73 74 75 76 82 88
77 79 79 82 87 86 86 85 83 86 88 90 89 88 87 81 80 77 66 65 69 70 71 75 77 86 89
77 79 81 82 84 85 82 81 87 83 89 92 91 93 89 87 87 83 73 69 72 74 74 80 91 96 91
79 79 80 82 84 79 81 91 89 89 91 94 87 85 89 90 92 93 91 87 88 91 96 96 96 98 94
82 82 80 78 75 77 89 96 95 93 93 92 86 91 93 93 94 91 95 95 95 96 97 96 88 90 91
84 79 77 76 73 79 89 93 94 93 93 88 92 93 93 93 94 94 94 93 97 97 96 91 92 93 93
75 70 71 74 74 74 89 87 91 91 91 89 93 95 92 93 95 98 98 96 95 97 90 91 90 83 81
78 72 76 78 78 81 88 91 91 93 90 86 92 93 94 96 97 98 98 98 95 95 90 89 92 85 84
79 79 79 79 81 84 85 87 90 93 94 90 91 90 89 91 95 94 97 97 98 98 97 97 90 85 70
83 82 83 80 79 80 82 83 86 93 95 97 89 92 92 90 91 97 96 96 97 98 97 95 88 87 66

GFSFLT2_prec_cthk_006.txt.gz
RH
23 27 27 29 36 39 40 36 33 32 36 44 51 55 62 64 64 63 63 62 58 50 50 52 59 63 64
26 25 28 35 38 36 40 39 33 40 53 58 60 62 62 65 68 69 70 71 72 71 68 52 54 59 65
26 26 33 37 35 36 35 36 52 59 61 64 65 65 67 71 72 71 72 75 77 80 80 77 63 50 52
35 39 40 35 39 37 45 62 63 65 65 65 64 64 68 68 67 71 73 75 79 82 85 87 85 78 65
43 40 36 37 47 61 65 64 66 69 63 63 59 64 67 68 70 72 77 78 81 82 85 88 88 83 82
44 43 40 58 68 69 70 68 63 72 67 58 73 69 70 71 75 79 80 81 82 82 79 79 71 69 68
45 51 66 71 72 72 73 72 71 66 66 67 76 72 74 75 73 76 79 81 84 86 80 67 65 67 68
63 74 76 77 78 77 75 71 71 69 74 75 74 76 74 71 76 78 82 84 87 89 79 72 68 64 65
79 80 79 80 80 77 73 71 65 66 75 79 79 79 73 75 78 83 87 90 91 91 91 87 78 76 74
80 79 81 81 80 79 74 69 69 60 76 82 82 81 75 75 79 79 80 85 90 93 93 93 93 93 90
76 76 75 74 75 75 76 75 71 70 74 86 84 85 83 78 75 76 80 83 88 95 96 95 89 87 82
73 74 75 76 76 77 78 78 79 76 76 86 86 89 83 81 79 76 79 85 91 95 96 95 94 89 87
74 76 76 74 74 75 78 77 76 79 78 80 87 91 86 83 81 78 76 81 92 97 98 97 94 93 96
74 74 74 76 76 78 78 77 75 76 80 78 84 93 88 86 85 82 81 86 91 97 97 98 96 96 81
74 76 80 80 81 81 81 80 79 75 74 76 82 94 90 86 85 84 85 93 97 97 96 94 97 81 75
76 79 82 82 83 87 89 86 80 78 76 76 81 90 85 80 81 85 90 96 96 97 97 95 86 84 80
87 86 87 89 89 87 84 83 82 81 78 76 85 94 88 81 77 83 95 94 95 96 97 93 88 80 87

GFSFLT2_prec_cthk_012.txt.gz
RH
24 25 25 22 18 21 24 27 23 22 29 33 38 43 46 50 46 51 54 55 58 62 64 65 64 65 65
25 23 22 19 23 27 27 25 25 30 39 44 47 50 53 56 56 56 58 59 58 61 60 63 65 65 66
23 21 21 25 29 26 26 31 38 42 46 49 51 55 56 60 58 57 59 60 65 66 66 66 68 69 70
25 24 28 31 30 35 37 44 47 52 54 56 57 55 59 58 58 57 58 66 68 70 72 71 69 66 66
27 31 32 33 45 50 53 54 59 61 58 59 57 56 56 55 55 57 64 71 75 76 74 71 69 68 67
34 33 40 52 58 59 61 63 59 67 62 56 60 54 55 55 56 62 69 76 79 78 75 74 74 74 74
35 44 55 62 62 61 62 62 58 56 59 51 57 55 55 54 56 59 71 78 79 77 76 75 75 76 78
49 59 64 63 64 63 63 61 57 59 64 61 55 53 51 54 58 58 69 78 78 76 74 73 71 72 77
62 61 61 63 65 64 63 61 55 57 64 65 57 54 52 53 60 61 70 78 75 70 71 72 72 72 78
57 58 59 61 64 67 65 64 65 58 69 64 61 66 52 54 65 65 66 72 72 68 69 71 71 77 81
54 56 59 62 67 68 71 74 73 70 77 77 69 69 70 55 58 64 67 70 72 68 69 71 77 86 85
57 59 63 68 75 77 79 83 88 85 79 83 77 77 72 64 58 62 67 75 75 68 71 75 84 90 95
62 67 72 78 81 80 82 85 90 89 86 84 82 78 76 70 64 66 74 79 72 70 73 80 88 90 92
70 75 81 86 87 88 86 86 84 85 90 85 82 79 75 74 72 77 83 79 73 74 78 86 89 91 90
77 82 86 90 94 94 93 90 88 82 79 80 82 79 76 79 83 85 78 75 74 76 84 84 87 89 86
83 86 91 93 92 92 94 93 88 85 80 76 75 69 69 82 88 83 77 76 79 82 82 81 82 86 82
85 90 95 95 95 92 94 94 91 85 81 79 75 77 86 86 83 84 82 82 84 85 85 86 88 83 85

GFSFLT2_prec_cthk_015.txt.gz
RH
23 20 20 16 15 15 15 17 16 17 23 26 34 37 38 41 43 45 48 50 53 54 59 61 61 61 64
21 20 16 15 18 20 18 18 22 26 33 38 40 44 46 50 52 53 56 57 56 57 58 57 61 63 64
21 18 17 18 19 19 22 25 32 38 42 43 46 49 52 53 55 58 58 58 59 59 58 63 66 66 66
22 20 21 21 23 26 28 37 41 48 48 48 51 48 49 53 55 54 53 56 56 60 62 68 71 72 74
25 26 26 23 29 38 42 44 46 47 46 45 46 45 47 49 52 53 53 56 57 62 66 73 75 74 70
30 28 26 35 45 48 48 48 43 52 47 45 49 45 48 50 51 55 56 56 54 59 66 74 76 75 71
29 30 41 48 48 49 51 51 49 49 48 40 45 43 48 48 54 55 55 55 55 59 70 78 78 76 71
32 44 49 50 53 53 52 52 52 51 56 47 50 48 49 49 54 57 59 57 58 60 67 74 74 71 68
45 49 50 52 55 57 58 60 57 57 66 61 59 56 55 55 56 59 63 61 57 57 66 72 75 70 65
46 47 51 54 60 66 68 70 71 62 72 67 68 70 56 62 63 63 64 63 60 58 63 69 72 67 64
45 49 51 59 66 74 82 83 81 79 82 80 74 76 76 63 62 66 66 63 61 58 60 71 73 67 66
49 52 58 65 72 79 85 88 93 86 83 87 77 80 79 70 64 66 67 63 61 59 61 72 69 66 70
55 61 66 71 77 82 89 89 89 90 89 87 86 84 82 76 70 68 63 62 64 64 73 72 67 67 69
63 67 72 77 86 88 86 87 80 82 90 90 87 84 80 78 75 70 71 75 74 77 75 69 69 73 79
68 72 76 82 88 89 88 84 85 85 83 83 85 86 83 83 82 86 84 81 78 75 75 77 80 83 81
72 75 78 81 80 82 84 84 83 84 80 80 80 79 83 90 91 85 78 76 79 84 84 82 83 85 85
76 78 79 78 76 78 80 80 78 80 83 92 96 97 93 87 84 85 83 84 86 88 85 86 86 89 91

GFSFLT2_prec_cthk_018.txt.gz
RH
30 27 23 19 16 14 14 14 12 13 16 22 25 29 33 37 39 42 42 44 45 46 49 54 55 55 55
29 24 20 18 17 16 13 12 14 17 20 29 32 35 38 40 45 47 48 50 50 51 53 53 53 53 53
26 23 20 18 16 14 14 16 21 27 32 33 34 36 41 43 43 43 44 45 46 51 55 56 56 56 56
24 23 21 18 18 18 18 26 30 33 33 34 35 37 37 37 38 39 40 41 46 49 55 58 58 59 60
28 27 23 20 20 24 31 31 32 34 34 34 36 36 37 39 40 41 41 45 49 51 56 58 58 59 62
32 27 23 21 28 34 35 35 34 38 37 36 40 38 40 42 43 43 45 49 50 51 53 57 57 59 64
31 27 25 31 36 36 39 41 41 42 46 39 48 46 48 48 51 51 51 50 52 54 54 57 59 59 66
26 26 35 38 41 44 44 43 47 52 64 50 55 54 54 55 61 63 61 60 58 58 55 57 57 57 63
26 38 40 42 44 46 49 54 52 57 74 66 64 62 62 59 70 75 71 67 64 59 55 56 55 57 59
38 38 41 45 49 56 60 63 67 62 76 71 70 73 59 61 67 76 78 73 67 64 58 57 57 58 58
37 40 45 52 58 66 73 75 76 80 86 84 71 74 78 66 64 70 75 71 68 65 61 58 54 57 57
41 46 54 59 65 71 76 81 83 83 83 86 80 84 81 72 66 69 74 72 69 65 61 58 56 56 59
49 56 60 64 69 70 74 77 78 84 87 87 85 83 82 78 73 72 67 68 71 64 61 59 59 64 68
58 61 64 70 70 73 70 72 70 71 80 83 83 82 82 86 87 78 80 80 75 74 75 76 76 72 67
63 64 71 72 73 73 70 69 70 68 66 76 87 94 95 94 92 89 89 85 83 82 81 75 74 73 69
67 69 74 72 74 71 71 72 76 83 88 89 90 89 87 86 89 85 81 79 81 84 85 84 82 79 79
70 73 75 75 78 80 85 87 88 90 90 90 91 92 90 88 87 90 86 89 92 91 89 86 83 82 85

GFSFLT2_prec_cthk_024.txt.gz
RH
67 61 55 47 40 35 31 28 27 23 20 18 19 24 28 29 31 32 32 32 31 33 34 34 34 35 36
61 56 48 41 37 33 31 30 25 21 20 20 23 25 26 31 31 29 30 32 32 32 35 36 36 37 37
54 48 43 39 35 35 33 26 23 21 23 25 27 28 26 26 28 27 27 29 30 31 32 32 32 35 40
47 41 39 39 39 35 30 26 23 25 27 29 28 26 26 27 26 28 30 31 32 33 38 38 38 39 43
40 41 43 40 37 34 32 28 28 30 30 27 26 26 30 33 36 39 40 42 43 45 49 51 55 54 52
43 41 39 37 37 34 32 33 36 33 30 27 30 32 38 41 45 47 48 49 49 52 56 56 57 61 61
38 38 38 39 37 35 38 41 41 35 32 29 39 39 44 46 50 50 49 49 51 52 55 57 62 67 70
34 35 37 38 39 41 43 39 36 36 42 37 45 44 44 44 45 48 52 55 57 57 61 62 66 66 68
31 31 31 32 35 36 37 38 36 43 53 50 48 45 41 39 43 47 51 56 61 62 62 65 66 67 68
22 22 24 30 36 39 41 46 52 50 57 56 53 48 44 42 48 55 61 66 68 69 72 69 68 69 67
18 21 31 36 41 46 55 58 59 59 64 65 60 65 70 64 65 69 71 74 77 78 82 84 79 74 70
25 35 40 46 52 60 62 65 66 66 68 75 73 76 74 70 68 70 74 74 76 78 82 86 87 85 81
40 46 53 61 64 64 67 67 65 72 75 78 77 76 77 77 75 74 73 75 81 81 79 79 82 86 81
54 61 64 66 66 68 68 64 64 68 74 76 76 78 79 81 82 76 79 79 79 79 78 80 83 86 85
62 64 66 67 69 70 67 63 66 66 67 73 75 77 79 78 78 82 81 79 76 77 82 83 85 85 81
64 66 67 69 70 69 68 68 67 69 70 70 69 69 72 80 88 85 83 82 83 87 90 87 80 83 81
67 68 69 71 72 70 68 66 64 65 68 69 69 71 77 83 84 96 88 87 88 86 87 87 85 83 80